[[{"header":{"parameterUnit":"m.s-1","parameterCategory":1,"la1":30.2991,"la2":30.254,"lo1":-89.0895,"lo2":-89.0444,"dy":0.0017,"dx":0.0017,"nx":28,"ny":28,"refTime":"2025-04-07T09:00:00:Z","depth":0,"parameterNumber":2,"parameterNumberName":"U-component_of_WINDS"},"data":[0,0,0,0,0,0,0,0,0,0,0,0,0,0,0,0,0,0,0,0,0,0,0,0,0,0,0,0,0,0,0,0,0,0,0,0,0,0,0,0,0,0,0,0,0,0,0,0,0,0,0,0,0,0,0,0,0,0,1.4267,1.4267,0,1.422,1.4219,1.4218,1.4212,1.4212,1.4213,1.4213,1.4161,1.4159,1.4157,0,0,0,0,0,0,0,0,0,0,0,0,0,1.4348,1.4347,1.4267,1.4267,1.4266,1.422,1.4219,1.4218,1.4212,1.4212,1.4213,1.4213,1.4161,1.4159,1.4157,0,0,0,0,0,0,0,0,0,0,0,0,0,1.4308,1.4346,1.4267,1.4257,1.4256,1.422,1.4219,1.4218,1.4211,1.4212,1.4213,1.4213,1.4162,1.4159,1.4157,1.4126,0,0,1.4148,1.4147,0,0,0,0,0,0,0,0,1.431,1.4305,1.4259,1.4258,1.4256,1.4222,1.4228,1.4187,1.4211,1.4228,1.4213,1.4214,1.418,1.4176,1.4166,1.4124,1.4122,1.4148,1.4147,1.4145,1.4145,0,0,0,0,0,0,0,1.4313,1.4307,1.4248,1.4259,1.4257,1.4254,1.4249,1.4221,1.4201,1.4227,1.4226,1.4221,1.418,1.4168,1.4164,1.4121,1.4148,1.4146,1.4144,1.4143,1.405,1.4049,0,0,0,0,0,0,1.4318,1.4309,1.425,1.4247,1.4286,1.4252,1.4246,1.4232,1.4201,1.4197,1.422,1.4221,1.4173,1.4168,1.4163,1.4123,1.4145,1.4143,1.4141,1.4051,1.405,1.4049,0,0,0,0,0,0,1.432,1.4313,1.4252,1.4278,1.427,1.425,1.4234,1.4231,1.422,1.4196,1.4193,1.4213,1.4173,1.4166,1.4135,1.4121,1.4142,1.4139,1.4052,1.405,1.4049,1.4045,0,0,0,0,0,0,1.4322,1.4314,1.4303,1.4278,1.4269,1.4226,1.4233,1.423,1.4216,1.4216,1.4188,1.4184,1.4173,1.4139,1.4133,1.4118,1.4137,1.4053,1.4051,1.405,1.4047,1.4044,1.4042,0,0,0,0,0,1.4325,1.4303,1.4302,1.4295,1.4255,1.4225,1.422,1.4209,1.4215,1.4203,1.4187,1.4185,1.4125,1.4136,1.4129,1.4113,1.4053,1.4051,1.405,1.4048,1.4045,1.4042,0,0,0,0,0,0,1.4326,1.43,1.4298,1.4268,1.4249,1.4224,1.4209,1.4206,1.4184,1.4185,1.4171,1.4165,1.4134,1.4121,1.4134,1.4081,1.4089,1.4086,1.409,1.4087,1.4085,1.4088,1.4135,0,0,0,0,0,1.4323,1.4303,1.4281,1.4256,1.4247,1.423,1.4216,1.4209,1.4189,1.418,1.4163,1.4142,1.4118,1.4102,1.4079,1.4045,1.4038,1.4031,1.4029,1.4027,1.4023,1.4002,1.3998,1.4042,1.4042,1.4042,0,0,1.4316,1.4299,1.4287,1.4256,1.424,1.4218,1.4223,1.4199,1.4182,1.4176,1.4145,1.4132,1.4107,1.4074,1.4059,1.4062,1.4009,1.4024,1.4023,1.402,1.4,1.3995,1.3992,1.4041,1.4041,1.4042,0,0,1.4292,1.4278,1.4255,1.4239,1.4216,1.4205,1.4199,1.4175,1.4166,1.4135,1.413,1.4109,1.4068,1.405,1.4036,1.4004,1.4,1.3997,1.3984,1.3964,1.396,1.3957,1.3943,1.3939,1.3994,1.3994,1.3994,0,1.4285,1.4253,1.4243,1.4219,1.4205,1.42,1.4175,1.416,1.413,1.4119,1.4124,1.4073,1.4056,1.4018,1.401,1.3999,1.3991,1.3999,1.3962,1.3959,1.3955,1.3942,1.3937,1.3994,1.3994,1.3994,1.3994,0,1.4245,1.4222,1.4206,1.4178,1.4162,1.4138,1.4123,1.4107,1.4102,1.409,1.4057,1.4037,1.4009,1.4,1.3994,1.396,1.3963,1.3965,1.3973,1.3951,1.3938,1.3933,1.3993,1.3993,1.3993,1.3993,0,0,1.4218,1.4185,1.4179,1.4166,1.414,1.4121,1.4096,1.407,1.4055,1.4035,1.4012,1.3978,1.398,1.3963,1.3956,1.3938,1.3911,1.3942,1.3941,1.3935,1.3869,1.3866,1.386,1.3909,1.3908,1.3908,1.387,0,1.4189,1.4145,1.4136,1.4097,1.4075,1.407,1.4048,1.4029,1.4017,1.3995,1.3981,1.3956,1.3962,1.3951,1.3934,1.3918,1.3897,1.3921,1.3885,1.3884,1.3889,1.3854,1.385,1.3816,1.3866,1.3865,1.3864,0,1.4148,1.4127,1.4087,1.4062,1.4053,1.4033,1.4007,1.3987,1.3965,1.3957,1.3939,1.3932,1.3904,1.3915,1.3875,1.3892,1.3877,1.3867,1.3865,1.3859,1.3871,1.3844,1.3805,1.3799,1.3857,1.3857,1.3858,0,1.413,1.4092,1.4062,1.4051,1.4022,1.4008,1.3995,1.3974,1.3958,1.3935,1.3924,1.3898,1.3883,1.3862,1.3848,1.3858,1.3809,1.3819,1.3799,1.3799,1.3787,1.3787,1.3742,1.3782,1.3782,1.3782,1.3782,0,1.4096,1.4071,1.4053,1.4035,1.4006,1.3995,1.3966,1.3953,1.3934,1.3911,1.3906,1.3885,1.3869,1.3845,1.3834,1.3801,1.3795,1.3787,1.3783,1.3785,1.3786,1.3773,1.3774,1.3781,1.3781,1.3781,1.3782,0,1.407,1.4057,1.4024,1.4,1.3993,1.3973,1.3951,1.3932,1.392,1.3892,1.3885,1.3865,1.3837,1.3822,1.3786,1.3779,1.3741,1.374,1.3748,1.3746,1.3726,1.3727,1.3669,1.366,1.3709,1.3708,1.3708,0,1.4048,1.4029,1.4003,1.3988,1.3975,1.3951,1.3935,1.3923,1.3906,1.3878,1.3862,1.3833,1.3809,1.3764,1.3746,1.3718,1.3715,1.3697,1.371,1.3712,1.3711,1.3711,1.3708,1.3693,1.3693,1.3692,1.3692,0,1.401,1.4005,1.3982,1.3957,1.3938,1.3917,1.3897,1.3884,1.3869,1.385,1.3821,1.3803,1.3766,1.3737,1.3708,1.3693,1.3688,1.3688,1.3682,1.3682,1.3686,1.3681,1.3738,1.3689,1.3689,1.3689,1.369,1.369,1.3984,1.3965,1.3943,1.3918,1.3901,1.3882,1.3862,1.3848,1.3824,1.3794,1.3789,1.3757,1.3734,1.3694,1.3678,1.3653,1.3656,1.3647,1.3644,1.3642,1.3639,1.3693,1.3648,1.3648,1.3648,1.3648,1.3648,0,1.3943,1.3929,1.3905,1.3877,1.3856,1.3856,1.3833,1.3815,1.3788,1.3767,1.3744,1.371,1.3681,1.3661,1.3631,1.3614,1.3612,1.3607,1.3606,1.3602,1.3639,1.3647,1.3609,1.3609,1.3609,1.3609,1.3609,1.3609,1.3919,1.3887,1.3879,1.3838,1.3824,1.3794,1.378,1.3761,1.3744,1.3706,1.3683,1.3671,1.3649,1.3618,1.3591,1.3585,1.3573,1.3568,1.3562,1.3596,1.36,1.3604,1.361,1.3566,1.3566,1.3527,1.3526,1.3526]},{"header":{"parameterUnit":"m.s-1","parameterCategory":1,"la1":30.2991,"la2":30.254,"lo1":-89.0895,"lo2":-89.0444,"dy":0.0017,"dx":0.0017,"nx":28,"ny":28,"refTime":"2025-04-07T09:00:00:Z","depth":0,"parameterNumber":3,"parameterNumberName":"V-component_of_WINDS"},"data":[0,0,0,0,0,0,0,0,0,0,0,0,0,0,0,0,0,0,0,0,0,0,0,0,0,0,0,0,0,0,0,0,0,0,0,0,0,0,0,0,0,0,0,0,0,0,0,0,0,0,0,0,0,0,0,0,0,0,-5.1312,-5.1314,0,-5.1531,-5.1534,-5.1536,-5.1481,-5.1476,-5.1472,-5.1468,-5.1693,-5.1703,-5.1712,0,0,0,0,0,0,0,0,0,0,0,0,0,-5.0846,-5.0854,-5.1312,-5.1314,-5.1317,-5.1531,-5.1534,-5.1537,-5.1481,-5.1476,-5.1471,-5.1466,-5.169,-5.1701,-5.1713,0,0,0,0,0,0,0,0,0,0,0,0,0,-5.1055,-5.0857,-5.1311,-5.1315,-5.1318,-5.153,-5.1534,-5.1537,-5.1482,-5.1476,-5.147,-5.1463,-5.1686,-5.17,-5.1715,-5.1937,0,0,-5.1761,-5.1767,0,0,0,0,0,0,0,0,-5.1043,-5.1072,-5.1312,-5.1315,-5.1319,-5.1472,-5.1452,-5.1671,-5.1484,-5.142,-5.1468,-5.146,-5.1625,-5.1644,-5.17,-5.1947,-5.1957,-5.1762,-5.1771,-5.1778,-5.1782,0,0,0,0,0,0,0,-5.1029,-5.1062,-5.1398,-5.1315,-5.132,-5.1306,-5.1329,-5.1493,-5.1556,-5.1425,-5.1422,-5.1448,-5.1625,-5.1685,-5.1704,-5.196,-5.1762,-5.1775,-5.1784,-5.179,-5.2401,-5.2408,0,0,0,0,0,0,-5.1011,-5.105,-5.1391,-5.1405,-5.1162,-5.132,-5.1345,-5.1429,-5.1554,-5.1567,-5.1454,-5.1445,-5.1663,-5.1687,-5.1712,-5.1981,-5.1778,-5.1792,-5.18,-5.2394,-5.2403,-5.2411,0,0,0,0,0,0,-5.1001,-5.1042,-5.1383,-5.1227,-5.1269,-5.1335,-5.143,-5.1437,-5.1497,-5.1575,-5.1586,-5.1503,-5.1659,-5.1691,-5.1881,-5.1988,-5.1798,-5.1812,-5.2386,-5.2397,-5.2407,-5.2519,0,0,0,0,0,0,-5.0988,-5.1039,-5.1124,-5.1229,-5.1278,-5.1549,-5.1436,-5.1446,-5.1523,-5.1514,-5.1625,-5.1637,-5.1656,-5.1859,-5.1896,-5.2005,-5.1824,-5.2377,-5.2391,-5.2404,-5.2506,-5.2532,-5.2555,0,0,0,0,0,-5.0972,-5.1147,-5.1129,-5.117,-5.1385,-5.1555,-5.1583,-5.1601,-5.1532,-5.1618,-5.1668,-5.1634,-5.197,-5.1879,-5.1921,-5.2035,-5.237,-5.2387,-5.2403,-5.2495,-5.2527,-5.2554,0,0,0,0,0,0,-5.1053,-5.1161,-5.1142,-5.1356,-5.1447,-5.1545,-5.1654,-5.1634,-5.1746,-5.1733,-5.175,-5.1776,-5.1971,-5.2022,-5.1919,-5.2256,-5.216,-5.2185,-5.2216,-5.2247,-5.2271,-5.2255,-5.1836,0,0,0,0,0,-5.1095,-5.1224,-5.1311,-5.1492,-5.1538,-5.1589,-5.1663,-5.1669,-5.1764,-5.1802,-5.1866,-5.196,-5.2086,-5.2169,-5.229,-5.2513,-5.2537,-5.2612,-5.2636,-5.2656,-5.2678,-5.28,-5.2835,-5.2464,-5.2464,-5.2464,0,0,-5.1185,-5.126,-5.134,-5.151,-5.1581,-5.1714,-5.1621,-5.1766,-5.1865,-5.1824,-5.2008,-5.2058,-5.2164,-5.2372,-5.2466,-5.242,-5.2785,-5.2676,-5.2691,-5.2703,-5.282,-5.2855,-5.2886,-5.2475,-5.2473,-5.2472,0,0,-5.1416,-5.1485,-5.1644,-5.1717,-5.1825,-5.1858,-5.1896,-5.1998,-5.203,-5.2215,-5.2187,-5.2305,-5.2522,-5.2599,-5.2666,-5.2926,-5.2899,-5.2965,-5.3093,-5.3212,-5.3241,-5.3267,-5.3361,-5.3394,-5.2986,-5.2987,-5.2987,0,-5.1514,-5.1713,-5.1728,-5.1875,-5.1951,-5.192,-5.208,-5.2151,-5.2293,-5.2347,-5.2292,-5.2565,-5.2634,-5.2859,-5.2923,-5.2978,-5.3022,-5.2953,-5.3235,-5.3261,-5.3286,-5.3376,-5.3411,-5.2994,-5.2993,-5.2992,-5.2992,0,-5.1828,-5.1967,-5.2082,-5.222,-5.2309,-5.2462,-5.25,-5.2588,-5.2586,-5.2624,-5.2813,-5.2894,-5.3031,-5.3085,-5.3084,-5.3311,-5.3279,-5.323,-5.3134,-5.3328,-5.3413,-5.3447,-5.3005,-5.3002,-5.3,-5.2998,0,0,-5.2118,-5.2262,-5.2304,-5.2367,-5.2484,-5.2592,-5.2744,-5.2878,-5.2953,-5.3052,-5.3181,-5.3365,-5.3321,-5.3397,-5.3405,-5.3509,-5.3711,-5.3448,-5.345,-5.3495,-5.3967,-5.4004,-5.4044,-5.3693,-5.37,-5.3705,-5.3958,0,-5.236,-5.2628,-5.2646,-5.2888,-5.3016,-5.2988,-5.3121,-5.3207,-5.3247,-5.3362,-5.3405,-5.3536,-5.3467,-5.3513,-5.3615,-5.3665,-5.3807,-5.3647,-5.3814,-5.382,-5.379,-5.4088,-5.4127,-5.4362,-5.3992,-5.3997,-5.4001,0,-5.268,-5.2789,-5.3044,-5.3143,-5.3198,-5.3317,-5.3441,-5.3551,-5.3648,-5.367,-5.3755,-5.3748,-5.3904,-5.3801,-5.4017,-5.3908,-5.3977,-5.4012,-5.4022,-5.4039,-5.3923,-5.4114,-5.4438,-5.4474,-5.4053,-5.4049,-5.4045,0,-5.2867,-5.3077,-5.3257,-5.3311,-5.3432,-5.3516,-5.357,-5.3661,-5.374,-5.3849,-5.3901,-5.4026,-5.4095,-5.4192,-5.4219,-5.4141,-5.4435,-5.4333,-5.4457,-5.4457,-5.4521,-5.4517,-5.4862,-5.4564,-5.4563,-5.4563,-5.4562,0,-5.3136,-5.3294,-5.3343,-5.3454,-5.3629,-5.3648,-5.3821,-5.387,-5.3951,-5.4071,-5.4054,-5.4167,-5.4195,-5.4314,-5.4336,-5.4512,-5.4542,-5.4565,-5.4569,-5.4567,-5.4565,-5.4614,-5.4599,-5.4572,-5.457,-5.4568,-5.4567,0,-5.3376,-5.3414,-5.3609,-5.3707,-5.3735,-5.386,-5.3944,-5.4051,-5.4087,-5.424,-5.4276,-5.4334,-5.4473,-5.4509,-5.4675,-5.469,-5.4898,-5.4886,-5.4865,-5.4865,-5.4987,-5.4976,-5.5377,-5.5431,-5.5096,-5.5099,-5.5102,0,-5.3546,-5.3667,-5.3777,-5.3856,-5.3914,-5.4042,-5.4123,-5.4145,-5.423,-5.435,-5.4443,-5.4579,-5.469,-5.4913,-5.497,-5.5096,-5.5088,-5.522,-5.5107,-5.5102,-5.5092,-5.5085,-5.5098,-5.5242,-5.5245,-5.5248,-5.5251,0,-5.3845,-5.3858,-5.3975,-5.41,-5.4197,-5.4296,-5.4391,-5.4457,-5.4492,-5.4589,-5.4731,-5.4816,-5.4985,-5.5121,-5.5249,-5.5305,-5.5285,-5.5285,-5.5321,-5.5321,-5.5305,-5.5317,-5.4925,-5.5276,-5.5274,-5.5272,-5.5271,-5.527,-5.4056,-5.4162,-5.4256,-5.4388,-5.4461,-5.455,-5.4656,-5.4706,-5.4824,-5.4964,-5.4969,-5.5124,-5.5218,-5.5388,-5.545,-5.5571,-5.5532,-5.5583,-5.5596,-5.5609,-5.562,-5.5284,-5.5594,-5.5594,-5.5593,-5.5592,-5.5592,0,-5.4355,-5.4414,-5.4534,-5.4668,-5.4771,-5.4742,-5.4846,-5.4934,-5.507,-5.516,-5.5269,-5.5432,-5.5564,-5.5631,-5.5762,-5.5846,-5.584,-5.588,-5.5874,-5.5888,-5.5648,-5.5604,-5.5882,-5.5882,-5.5882,-5.5882,-5.5882,-5.5882,-5.4523,-5.4701,-5.4725,-5.494,-5.4998,-5.5149,-5.521,-5.5293,-5.5364,-5.5547,-5.5657,-5.5699,-5.578,-5.5917,-5.6037,-5.6053,-5.6102,-5.6148,-5.6159,-5.5934,-5.5904,-5.5876,-5.5836,-5.6158,-5.6158,-5.639,-5.6392,-5.6393]}]]